CET,Max TemperatureF,Mean TemperatureF,Min TemperatureF,Max Dew PointF,MeanDew PointF,Min DewpointF,Max Humidity, Mean Humidity, Min Humidity, Max Sea Level PressureIn, Mean Sea Level PressureIn, Min Sea Level PressureIn, Max VisibilityMiles, Mean VisibilityMiles, Min VisibilityMiles, Max Wind SpeedMPH, Mean Wind SpeedMPH, Max Gust SpeedMPH,PrecipitationIn, CloudCover, Events, WindDirDegrees
2012-11-1,74,67,60,57,52,50,72,63,46,29.92,29.74,29.62,19,7,6,18,10,,0.00,3,,290
2012-11-2,72,62,51,59,53,50,100,76,36,30.04,29.98,29.92,19,7,3,10,5,,0.24,3,Rain,295
2012-11-3,66,63,60,64,62,59,100,98,88,29.99,29.93,29.89,6,4,2,9,3,,0.08,6,Rain,117
2012-11-4,77,70,63,68,66,64,100,90,66,29.92,29.86,29.80,12,5,1,13,4,24,0.12,5,Fog-Rain,146
2012-11-5,66,62,59,66,52,45,100,70,46,30.06,29.99,29.86,12,6,6,21,11,,0.01,4,Rain,281
2012-11-6,59,57,55,59,55,48,100,91,58,30.15,30.06,30.01,9,3,1,14,6,,0.63,6,Rain,290
2012-11-7,62,60,59,59,58,57,100,91,81,30.21,30.16,30.09,6,4,1,23,10,37,0.55,6,Rain,134
2012-11-8,66,63,60,61,60,57,100,90,74,30.18,30.06,29.98,12,6,2,15,5,,0.01,6,Rain-Thunderstorm,146
2012-11-9,64,60,57,63,61,57,100,97,88,30.01,29.96,29.92,6,4,1,12,4,,1.14,6,Rain-Thunderstorm,167
2012-11-10,69,61,53,57,52,46,100,78,42,29.95,29.92,29.86,19,6,4,13,6,,0.01,3,,308
2012-11-11,61,56,50,54,46,41,100,74,53,29.92,29.81,29.74,19,6,2,22,9,40,0.04,3,Rain,305
2012-11-12,68,60,51,50,45,41,72,63,47,30.06,29.99,29.86,12,6,6,21,15,30,0.00,1,,280
2012-11-13,70,62,51,49,46,41,82,56,35,30.08,29.99,29.92,19,8,6,21,15,32,0.00,1,,280
2012-11-14,68,58,48,59,52,45,94,81,48,30.27,29.99,29.95,19,8,6,9,5,,0.00,2,,275
2012-11-15,68,62,55,61,57,52,100,88,70,30.09,30.04,30.01,12,6,6,13,4,,0.00,4,,261
2012-11-16,66,62,59,63,60,57,100,93,80,30.08,30.00,29.92,9,5,3,13,5,,0.00,6,Rain,134
2012-11-17,65,62,59,63,60,57,100,93,82,29.95,29.78,29.71,6,4,1,24,11,36,1.30,6,Rain-Thunderstorm,128
2012-11-18,65,61,57,61,58,55,100,91,72,29.92,29.75,29.65,12,6,2,20,10,30,0.08,5,Rain,113
2012-11-19,69,60,50,61,56,50,100,91,63,30.06,30.01,29.95,19,7,6,10,4,,0.00,2,,309
2012-11-20,67,58,50,59,55,50,100,89,58,30.12,30.07,30.04,16,7,6,8,4,,0.00,1,,271
2012-11-21,69,61,53,55,54,52,100,82,46,30.12,30.07,30.04,19,7,6,9,5,,0.00,1,,290
2012-11-22,68,62,53,59,56,52,100,88,76,30.18,30.14,30.09,12,6,6,61,4,,0.00,4,,297
2012-11-23,66,60,53,59,55,52,100,91,67,30.21,30.16,30.12,7,6,4,9,5,,0.00,4,,293
2012-11-24,64,59,54,57,55,51,100,89,63,30.18,30.13,30.09,9,6,6,8,4,,0.00,3,,295
2012-11-25,66,60,53,57,55,53,100,92,69,30.13,30.08,30.04,7,5,4,8,3,,0.00,3,,288
2012-11-26,67,60,53,59,55,50,100,87,57,30.05,29.96,29.86,9,5,3,13,4,,0.08,2,Rain,293
2012-11-27,59,52,46,48,42,37,82,68,35,29.89,29.85,29.80,19,7,3,20,13,37,0.04,2,Rain,302
2012-11-28,58,50,42,41,38,36,87,64,40,29.92,29.87,29.83,9,6,6,22,13,30,0.00,1,,296
2012-11-29,58,52,46,41,39,37,81,63,40,29.98,29.93,29.89,19,7,6,20,15,37,0.00,1,,296
2012-11-30,53,47,41,43,39,34,87,75,54,29.92,29.76,29.65,19,7,6,15,8,25,0.02,2,Rain,291